St. Augustine, FL

9:17 AM EDT on April 27, 2017 (GMT -0400)
Saint Augustine

Weather History for KSGJ - January, 2008

Change the Weather History Date:

Saturday, January 12, 2008

  Actual Average Record
Temperature  
Mean Temperature 65 °F -  
Max Temperature 71 °F 62 °F 82 °F (1975)
Min Temperature 59 °F 44 °F 21 °F (1982)
Growing Degree Days 15 (Base 50)    
Moisture  
Dew Point 62 °F    
Average Humidity 91    
Maximum Humidity 100    
Minimum Humidity 73    
Precipitation  
Precipitation 0.00 in - - ()
Sea Level Pressure  
Sea Level Pressure 29.94 in    
Wind  
Wind Speed 4 mph (SSW)    
Max Wind Speed 9 mph    
Max Gust Speed -    
Visibility 6 miles    
Events Fog , Rain , Thunderstorm    
Averages and records for this station are not official NWS values.
T = Trace of Precipitation, MM = Missing Value Source: NWS Daily Summary

Daily Weather History Graph

Daily Weather History Graph

Search for Another Location

Airport or City:

Trip Planner

Search our weather history database for the weather conditions in past years. The results will help you decide how hot, cold, wet, or windy it might be!

Date:

Astronomy

Jan. 12, 2008 Rise Set
Actual Time 7:22 AM EST 5:45 PM EST
Civil Twilight 6:56 AM EST 6:10 PM EST
Nautical Twilight 6:26 AM EST 6:40 PM EST
Astronomical Twilight 5:57 AM EST 7:09 PM EST
Moon 10:03 AM EST (1/12) 10:02 PM EST (1/12)
Length of Visible Light 11h 14m
Length of Day
10h 22m
Waxing Crescent, 18% of the Moon is Illuminated
Jan 12
Waxing Crescent
Jan 15
First Quarter
Jan 22
Full
Jan 30
Last Quarter
Feb 6
New

Hourly Weather History & Observations

Time (EST) Temp. Dew Point Humidity Pressure Visibility Wind Dir Wind Speed Gust Speed Precip Events Conditions
12:15 AM 64.4 °F 60.8 °F 88% 29.93 in 10.0 mi WSW 3.5 mph - N/A   Clear
12:35 AM 64.4 °F 60.8 °F 88% 29.93 in 10.0 mi SW 3.5 mph - N/A   Clear
12:55 AM 62.6 °F 60.8 °F 94% 29.93 in 10.0 mi SW 3.5 mph - N/A   Clear
1:15 AM 62.6 °F 60.8 °F 94% 29.92 in 10.0 mi SSW 3.5 mph - N/A   Clear
1:35 AM 62.6 °F 60.8 °F 94% 29.92 in 10.0 mi SSW 4.6 mph - N/A   Clear
1:55 AM 62.6 °F 59.0 °F 88% 29.92 in 10.0 mi SSW 3.5 mph - N/A   Clear
2:15 AM 62.6 °F 59.0 °F 88% 29.92 in 10.0 mi SSW 4.6 mph - N/A   Clear
2:35 AM 62.6 °F 60.8 °F 94% 29.92 in 10.0 mi SSW 5.8 mph - N/A   Clear
2:55 AM 62.6 °F 60.8 °F 94% 29.92 in 10.0 mi SW 5.8 mph - N/A   Clear
3:15 AM 62.6 °F 60.8 °F 94% 29.92 in 10.0 mi SW 4.6 mph - N/A   Clear
3:35 AM 62.6 °F 60.8 °F 94% 29.92 in 10.0 mi SSW 6.9 mph - N/A   Clear
3:55 AM 62.6 °F 60.8 °F 94% 29.92 in 10.0 mi SSW 4.6 mph - N/A   Clear
4:15 AM 62.6 °F 60.8 °F 94% 29.92 in 3.0 mi SW 5.8 mph - N/A   Mostly Cloudy
4:35 AM 62.6 °F 60.8 °F 94% 29.91 in 0.5 mi SSW 6.9 mph - N/A   Overcast
4:55 AM 62.6 °F 60.8 °F 94% 29.92 in 0.5 mi SW 5.8 mph - N/A   Overcast
5:15 AM 62.6 °F 60.8 °F 94% 29.92 in 0.8 mi SSW 5.8 mph - N/A   Overcast
5:35 AM 62.6 °F 60.8 °F 94% 29.93 in 0.8 mi SSW 4.6 mph - N/A   Overcast
5:55 AM 62.6 °F 60.8 °F 94% 29.93 in 1.2 mi SSW 6.9 mph - N/A   Overcast
6:15 AM 62.6 °F 60.8 °F 94% 29.93 in 2.5 mi SSW 6.9 mph - N/A   Overcast
6:35 AM 62.6 °F 60.8 °F 94% 29.95 in 4.0 mi SW 6.9 mph - N/A   Overcast
6:50 AM 62.6 °F 60.8 °F 94% 29.96 in 0.5 mi WSW 5.8 mph - N/A   Overcast
7:16 AM 62.6 °F 60.8 °F 94% 29.95 in 0.2 mi WSW 4.6 mph - N/A   Overcast
7:36 AM 62.6 °F 60.8 °F 94% 29.95 in 0.2 mi SSW 3.5 mph - N/A   Overcast
7:50 AM 62.6 °F 60.8 °F 94% 29.95 in 0.2 mi SSW 5.8 mph - N/A Fog Fog
8:22 AM 62.6 °F 62.6 °F 100% 29.96 in 0.2 mi SSW 6.9 mph - N/A   Overcast
8:30 AM 62.6 °F 62.6 °F 100% 29.96 in 0.5 mi SSW 6.9 mph - N/A   Mostly Cloudy
8:50 AM 64.4 °F 62.6 °F 94% 29.97 in 2.0 mi SW 6.9 mph - N/A   Mostly Cloudy
9:50 AM 66.2 °F 64.4 °F 94% 29.99 in 6.0 mi SSW 6.9 mph - N/A   Mostly Cloudy
10:25 AM 69.8 °F 64.4 °F 83% 29.99 in 10.0 mi North - - N/A   Mostly Cloudy
10:50 AM 71.6 °F 64.4 °F 78% 29.99 in 10.0 mi WSW 5.8 mph - N/A   Scattered Clouds
11:50 AM 71.6 °F 62.6 °F 73% 29.97 in 10.0 mi ENE 9.2 mph - N/A   Scattered Clouds
12:50 PM 68.0 °F 62.6 °F 83% 29.92 in 10.0 mi East 8.1 mph - N/A   Scattered Clouds
1:50 PM 69.8 °F 62.6 °F 78% 29.93 in 10.0 mi East 5.8 mph - N/A   Mostly Cloudy
2:52 PM 71.6 °F 64.4 °F 78% 29.91 in 10.0 mi SE 9.2 mph - N/A   Partly Cloudy
3:50 PM 71.6 °F 62.6 °F 73% - 4.0 mi South 4.6 mph - N/A   Haze
4:35 PM 69.8 °F 64.4 °F 83% 29.93 in 4.0 mi Calm Calm - N/A Thunderstorm Unknown
4:51 PM 69.8 °F 64.4 °F 83% 29.93 in 4.0 mi Calm Calm - N/A   Overcast
4:58 PM 69.8 °F 64.4 °F 83% 29.95 in 2.5 mi West 5.8 mph - N/A Rain , Thunderstorm Thunderstorms and Rain
5:15 PM 68.0 °F 64.4 °F 88% 29.93 in 10.0 mi Calm Calm - N/A   Mostly Cloudy
5:50 PM 66.2 °F 64.4 °F 94% 29.94 in 10.0 mi WSW 3.5 mph - N/A   Scattered Clouds
6:50 PM 66.2 °F 64.4 °F 94% 29.95 in 10.0 mi Calm Calm - N/A   Mostly Cloudy
7:50 PM 64.4 °F 64.4 °F 100% 29.96 in 7.0 mi Calm Calm - N/A   Partly Cloudy
8:55 PM 66.2 °F 64.4 °F 94% 29.98 in 7.0 mi SSW 3.5 mph - N/A   Overcast
9:15 PM 66.2 °F 64.4 °F 94% 29.98 in 6.0 mi Calm Calm - N/A   Mostly Cloudy
9:35 PM 66.2 °F 64.4 °F 94% 29.98 in 6.0 mi North 4.6 mph - N/A   Overcast
9:55 PM 62.6 °F 62.6 °F 100% 29.98 in 3.0 mi Calm Calm - N/A   Overcast
10:15 PM 62.6 °F 60.8 °F 94% 29.98 in 3.0 mi Calm Calm - N/A   Scattered Clouds
10:35 PM 62.6 °F 60.8 °F 94% 29.97 in 2.5 mi Calm Calm - N/A   Clear
10:55 PM 62.6 °F 60.8 °F 94% 29.97 in 1.0 mi Calm Calm - N/A   Scattered Clouds
11:15 PM 60.8 °F 59.0 °F 94% 29.96 in 1.2 mi Calm Calm - N/A   Clear
11:35 PM 59.0 °F 57.2 °F 94% 29.95 in 1.5 mi Calm Calm - N/A   Clear
11:55 PM 60.8 °F 59.0 °F 94% 29.95 in 0.8 mi Calm Calm - N/A   Unknown